Date,TemperatureHighF,TemperatureAvgF,TemperatureLowF,DewpointHighF,DewpointAvgF,DewpointLowF,HumidityHigh,HumidityAvg,HumidityLow,PressureMaxIn,PressureMinIn,WindSpeedMaxMPH,WindSpeedAvgMPH,GustSpeedMaxMPH,PrecipitationSumIn
2013-1-2,59.0,43.0,37.9,50.7,35.5,30.7,75,75,74,30.23,29.85,5,5,11,0.00
2013-1-9,54.8,52.9,50.2,49.5,48.1,46.1,91,84,79,30.42,30.34,9,2,9,0.00
2013-1-10,65.0,58.9,49.2,62.0,57.3,47.9,96,94,89,30.27,29.93,22,6,22,0.43
2013-1-11,65.8,61.1,55.9,61.7,53.4,50.7,92,77,61,30.01,29.92,21,7,21,0.65
2013-1-14,59.0,27.6,24.2,51.1,23.1,20.2,92,83,75,30.44,29.93,15,4,15,3.05
2013-1-15,31.2,27.2,24.1,28.1,24.1,21.9,92,88,82,30.33,30.13,14,4,14,0.00
2013-1-17,47.1,37.6,28.1,37.8,31.9,25.5,91,80,67,30.48,30.13,19,4,19,0.02
2013-1-18,49.1,34.8,22.6,32.6,26.9,20.7,94,75,47,30.58,30.38,16,2,16,0.00
2013-1-22,27.5,24.4,19.2,9.6,6.2,2.6,65,45,38,30.48,30.38,12,2,12,0.02
2013-1-23,49.9,40.6,21.7,34.4,27.1,8.1,79,59,46,30.38,30.15,18,4,18,0.00
2013-1-24,34.3,29.7,23.5,30.6,16.3,12.2,89,58,45,30.53,30.25,17,5,17,0.00
2013-1-28,62.5,57.4,52.5,58.4,54.5,49.4,93,90,86,30.15,30.05,20,8,20,0.21
2013-1-29,71.3,65.8,60.2,64.7,61.1,57.4,92,85,78,29.99,29.44,45,11,45,0.05
2013-1-30,68.0,47.9,33.6,57.5,42.9,23.2,96,83,65,29.95,29.43,30,8,45,1.87
2013-1-31,44.1,35.9,29.9,32.4,25.9,21.5,73,67,55,30.12,29.94,27,6,27,0.00
2013-2-1,27.4,21.3,13.7,17.5,11.5,6.4,76,65,59,30.55,30.31,11,3,19,0.00
2013-2-2,40.7,33.6,24.4,34.4,26.7,16.6,90,76,58,30.35,30.11,11,4,19,0.00
2013-2-3,44.7,37.5,29.3,34.2,29.7,24.0,92,74,55,30.17,30.02,10,4,21,0.01
2013-2-4,50.5,42.4,28.7,42.3,34.8,24.3,89,75,50,30.12,29.90,20,6,20,0.05
2013-2-5,57.3,49.6,42.0,44.6,41.4,37.0,94,75,49,30.03,29.91,14,3,14,0.00
2013-2-6,54.2,46.6,33.6,37.7,34.7,31.5,93,64,43,30.25,30.08,10,1,10,0.00
2013-2-7,66.9,53.1,40.1,53.0,43.8,33.3,94,71,55,30.10,29.85,15,2,15,0.46
2013-2-8,53.9,42.9,39.4,52.2,38.7,33.4,94,85,71,30.27,29.89,20,7,20,0.09
2013-2-9,50.0,36.1,32.2,33.3,29.5,27.9,85,78,51,30.37,30.23,6,3,15,0.00
2013-2-11,53.3,44.4,34.2,35.1,32.8,30.4,87,65,45,30.16,30.06,16,3,16,0.48
2013-2-12,49.1,41.3,29.2,36.8,32.8,27.2,94,73,53,30.16,29.83,11,1,11,0.00
2013-2-13,44.2,39.6,37.1,39.1,36.3,34.6,94,88,74,29.98,29.78,18,4,18,0.22
2013-2-14,59.8,46.3,36.3,43.5,38.4,34.2,93,76,47,30.01,29.95,17,5,17,0.00
2013-2-15,48.7,41.0,37.1,38.1,35.2,31.4,91,81,53,30.17,30.01,17,2,17,0.00
2013-2-16,43.0,41.7,40.4,35.8,32.3,26.9,76,69,58,30.08,30.06,15,7,16,0.00
2013-2-17,46.8,44.8,40.7,26.8,24.7,23.5,53,45,40,30.16,30.12,12,5,15,0.00
2013-2-18,61.6,54.5,42.2,45.7,40.2,34.2,79,60,44,30.08,29.75,40,14,40,0.11
2013-2-19,44.6,40.4,34.3,28.2,25.6,22.9,76,56,43,30.17,30.08,22,8,22,1.32
2013-2-20,33.6,29.5,23.9,20.7,18.1,14.8,74,62,53,30.38,30.26,11,2,16,0.00
2013-2-21,39.4,32.7,26.3,38.0,26.7,19.3,95,79,55,30.29,29.83,23,5,23,0.90
2013-2-22,46.7,41.3,33.8,42.4,37.9,30.2,96,88,78,30.06,29.83,18,5,18,0.01
2013-2-23,46.9,34.5,28.0,33.4,28.4,25.5,91,79,55,30.06,29.96,10,1,10,0.00
2013-2-24,51.9,43.0,26.2,31.7,28.5,23.9,91,59,42,30.16,30.02,10,2,12,0.00
2013-2-25,58.3,53.1,38.9,47.0,35.8,28.2,86,53,39,30.07,29.43,25,8,25,0.14
2013-2-26,50.9,45.7,38.3,49.2,42.6,35.6,95,89,78,29.69,29.34,27,8,27,0.61
2013-2-27,39.0,37.9,35.3,35.8,33.2,31.7,90,83,77,29.91,29.69,23,6,23,0.00
2013-2-28,38.2,35.6,33.2,32.7,30.3,27.0,90,81,75,30.06,29.89,15,4,15,0.01
2013-3-1,37.0,35.2,32.6,34.3,33.1,31.1,95,92,87,30.09,30.05,14,4,14,0.08
2013-3-2,31.0,30.7,30.4,29.4,28.8,28.1,94,92,91,30.16,30.12,16,6,16,0.02
2013-3-3,25.7,25.4,25.4,21.5,21.5,21.5,85,85,85,30.20,30.19,4,2,15,0.00
2013-3-4,58.9,49.5,36.7,36.3,30.8,24.0,62,49,41,30.07,29.81,20,8,20,0.03
2013-3-5,51.4,39.6,33.6,50.2,34.3,22.5,98,82,60,30.07,29.74,30,9,30,0.46
2013-3-6,41.9,36.1,32.8,31.3,27.9,25.2,77,72,62,30.31,30.06,22,8,24,0.00
2013-3-7,45.2,39.0,30.5,33.2,30.2,26.5,86,71,59,30.41,30.31,11,2,11,0.00
2013-3-8,55.3,47.1,30.8,34.3,32.0,28.0,89,58,39,30.44,30.28,13,4,13,0.00
2013-3-9,48.9,45.4,44.0,34.2,33.1,32.2,65,62,57,30.19,30.18,11,2,11,0.00
2013-3-10,58.7,58.7,58.7,44.4,44.4,44.4,59,59,59,29.93,29.93,11,4,11,0.00
2013-3-11,44.5,41.4,39.5,40.0,36.0,32.5,92,81,73,29.92,29.75,21,6,21,0.38
2013-3-12,51.7,44.4,28.2,35.0,31.6,26.4,94,63,45,30.16,29.92,20,4,20,0.00
2013-3-13,47.9,39.3,33.0,33.8,24.6,21.8,68,56,47,30.37,30.12,21,8,21,0.00
2013-3-14,46.3,41.0,23.2,31.8,27.4,21.0,91,59,47,30.43,30.15,12,3,12,0.00
2013-3-15,75.7,57.2,37.4,53.0,42.2,26.2,79,58,44,30.16,29.80,25,6,25,0.00
2013-3-16,72.5,62.1,47.7,57.0,49.7,41.7,80,64,53,29.95,29.75,26,8,26,0.00
2013-3-17,47.5,44.0,42.4,44.5,41.4,39.1,95,91,80,30.00,29.71,17,4,17,0.33
2013-3-18,53.5,46.6,36.1,50.2,44.3,34.2,96,92,83,30.01,29.65,22,3,22,1.19
2013-3-19,53.2,42.5,32.9,36.1,29.6,21.0,95,64,31,30.20,30.00,14,2,14,0.01
2013-3-20,47.7,37.1,28.4,35.3,27.9,18.6,87,70,54,30.20,30.07,24,4,24,0.00
2013-3-21,42.2,32.3,20.5,24.7,19.8,17.1,92,62,41,30.12,29.98,12,2,12,0.00
2013-3-22,35.7,34.8,34.4,24.1,22.7,21.2,65,61,58,30.04,29.99,11,3,11,0.00
2013-3-23,55.6,47.0,40.9,45.1,37.0,29.6,93,69,55,29.99,29.72,6,3,16,0.33
2013-3-24,47.2,42.1,33.9,45.1,39.9,30.6,96,92,85,29.76,29.46,15,6,31,0.35
2013-3-25,37.4,34.5,32.4,31.3,29.1,26.3,93,80,74,30.17,29.77,18,7,26,0.00
2013-3-26,41.7,35.3,30.3,32.4,29.7,26.6,93,81,62,30.36,30.17,13,4,13,0.02
2013-3-27,50.1,37.9,24.4,34.2,28.9,22.5,94,72,47,30.42,30.32,13,1,13,0.00
2013-3-28,40.4,38.4,37.5,35.2,33.7,31.8,89,83,73,30.36,30.31,4,0,4,0.00
2013-3-29,55.6,49.6,46.1,49.2,45.1,38.5,92,85,63,30.28,30.17,17,4,17,0.38
2013-3-30,46.7,45.4,44.4,45.5,44.3,43.3,100,96,96,30.19,30.16,8,3,8,0.00
2013-3-31,52.1,52.1,52.1,51.0,51.0,51.0,96,96,96,29.91,29.90,0,0,7,0.01
2013-4-1,45.0,45.0,45.0,35.5,35.5,35.5,69,69,69,30.06,30.05,10,5,10,0.00
2013-4-2,39.5,39.5,39.5,26.4,26.4,26.0,59,59,59,30.27,30.27,6,2,10,0.00
2013-4-3,44.1,41.6,38.9,26.4,24.7,23.2,58,51,45,30.33,30.27,15,5,15,0.78
2013-4-4,46.6,42.8,40.4,42.2,34.2,25.6,92,74,44,30.18,30.06,6,2,13,0.11
2013-4-5,37.1,36.8,36.7,35.5,35.5,35.4,95,95,95,30.12,30.12,0,0,6,0.00
2013-4-6,45.2,45.0,45.0,41.8,41.8,41.7,88,88,88,30.09,30.09,0,0,6,0.00
2013-4-7,61.3,61.3,61.3,51.1,51.1,51.1,69,69,69,29.97,29.97,13,8,13,0.00
2013-4-8,76.0,70.1,61.1,60.8,57.9,52.0,78,66,54,29.95,29.85,26,9,26,0.00
2013-4-9,77.1,73.1,65.4,66.9,64.3,60.0,83,74,68,30.02,29.90,22,7,22,0.00
2013-4-10,82.8,77.1,69.7,67.9,64.7,62.0,84,66,57,29.95,29.69,24,7,24,0.00
2013-4-11,74.0,61.5,50.2,64.4,59.4,48.8,96,93,68,29.73,29.58,19,3,19,3.00
2013-4-12,61.2,55.2,40.3,46.3,42.5,37.9,91,63,53,29.89,29.84,23,6,26,0.01
2013-4-13,51.4,46.8,42.7,41.4,38.6,37.5,82,73,64,30.10,30.08,7,3,10,0.00
2013-4-14,53.4,53.2,53.0,45.9,45.8,45.6,76,76,76,29.90,29.90,5,4,6,0.00
2013-4-15,80.9,72.8,57.7,63.3,60.3,53.9,87,66,50,29.94,29.83,18,6,18,0.00
2013-4-16,80.5,74.7,0.0,71.9,68.2,0.0,90,80,72,30.05,29.90,18,4,18,0.00
2013-4-17,85.4,75.4,67.4,71.9,68.1,65.0,93,79,56,30.08,29.83,28,4,28,0.08
2013-4-18,81.3,76.4,72.6,68.3,66.3,62.3,85,72,56,29.85,29.61,29,11,29,0.00
2013-4-19,46.7,44.4,42.4,36.4,34.6,33.1,77,68,61,30.01,29.89,21,6,21,0.02
2013-4-20,37.7,37.5,37.3,36.1,35.9,35.7,94,94,94,30.22,30.21,1,0,11,0.00
2013-4-21,44.5,44.5,44.5,34.2,34.1,33.9,67,67,66,30.38,30.38,7,5,7,0.00
2013-4-22,73.0,66.4,47.9,52.6,47.7,40.4,75,52,40,30.24,30.04,15,5,15,0.00
2013-4-23,74.1,67.9,58.3,60.7,58.1,52.5,81,71,60,30.06,29.86,21,8,21,0.00
2013-4-24,67.1,49.5,42.7,60.1,44.9,39.0,94,85,69,30.22,29.83,18,4,18,1.36
2013-4-25,65.0,57.7,40.5,47.1,43.1,39.5,96,60,43,30.39,30.31,11,3,11,0.01
2013-4-26,53.7,52.2,50.5,50.2,47.7,42.6,94,85,71,30.44,30.24,12,2,12,0.35
2013-4-27,53.0,52.1,51.6,51.9,51.0,50.5,96,96,96,30.20,30.12,11,2,11,0.93
2013-4-28,54.3,54.3,54.2,53.2,53.2,53.1,96,96,96,29.94,29.94,4,1,5,1.25
2013-4-29,74.5,67.1,50.2,61.4,57.3,49.4,97,72,55,30.01,29.89,11,2,11,2.52
2013-4-30,81.3,75.2,58.5,62.8,58.2,52.9,90,58,39,29.98,29.90,13,3,13,0.00
2013-5-1,81.5,75.3,60.0,66.9,62.4,57.1,91,65,50,30.07,30.02,15,3,15,0.00
2013-5-2,75.2,70.6,62.1,63.1,60.0,57.3,85,69,60,30.13,30.00,11,2,11,0.00
2013-5-3,74.5,68.1,50.5,61.7,58.5,47.5,90,72,60,29.93,29.75,26,9,26,0.04
2013-5-4,50.3,41.5,41.1,47.5,40.0,39.4,95,94,90,29.94,29.82,14,3,20,0.65
2013-5-5,46.0,45.9,45.9,44.7,44.5,44.5,95,95,95,29.88,29.88,6,3,7,0.01
2013-5-6,63.0,58.0,52.8,58.8,55.5,51.1,95,92,81,29.86,29.82,12,2,12,0.12
2013-5-7,72.3,64.1,54.8,61.4,58.4,53.7,97,83,61,30.00,29.94,13,1,13,0.00
2013-5-8,80.4,68.3,55.6,63.0,58.3,54.2,96,74,46,30.04,29.95,11,1,11,0.01
2013-5-9,80.2,76.0,62.7,65.5,63.2,59.3,89,65,56,30.05,29.92,19,7,19,0.00
2013-5-10,73.0,67.9,63.4,68.2,64.9,62.0,96,90,78,29.90,29.82,11,2,13,0.85
2013-5-11,58.6,58.0,57.1,55.0,53.9,52.9,90,86,82,29.99,29.95,10,2,10,0.10
2013-5-12,49.6,49.4,49.3,43.6,43.3,42.6,80,79,77,30.17,30.17,4,2,6,0.06
2013-5-13,70.5,63.7,44.1,47.7,42.5,37.3,95,49,33,30.26,30.13,11,2,11,0.06
2013-5-14,84.9,77.2,59.8,64.0,60.0,52.6,78,57,46,30.08,29.93,24,9,24,0.00
2013-5-15,84.0,79.0,67.3,62.4,58.3,52.7,73,50,38,30.04,29.92,23,7,23,0.00
2013-5-16,78.6,73.1,69.9,65.4,62.6,56.1,77,70,46,29.99,29.92,12,2,12,0.00
2013-5-17,70.3,67.1,64.3,67.2,64.8,61.9,95,92,87,29.99,29.93,14,4,14,0.24
2013-5-18,67.4,66.7,66.0,66.5,65.8,65.1,97,97,97,29.98,29.93,3,0,13,0.01
2013-5-19,87.3,78.5,71.2,75.0,72.0,69.2,96,81,62,29.93,29.84,10,4,18,0.02
2013-5-20,85.8,83.9,69.7,74.2,72.4,67.9,94,69,63,29.95,29.83,16,7,16,0.00
2013-5-21,83.4,67.4,66.0,72.6,65.4,64.4,95,93,70,29.95,29.83,29,4,29,0.09
2013-5-22,64.8,64.7,64.5,63.6,63.5,63.3,96,96,96,29.80,29.80,8,4,11,0.05
2013-7-18,90.3,87.8,83.7,80.6,78.9,75.4,87,75,66,30.16,30.05,14,2,14,0.00
2013-7-19,70.5,70.3,70.3,69.4,69.4,69.4,97,97,97,30.04,30.04,0,0,10,0.00
2013-7-20,88.7,80.3,72.6,77.6,74.0,71.1,95,82,66,29.94,29.81,7,3,18,0.00
2013-7-21,88.0,76.7,71.8,79.3,72.9,70.4,96,89,66,29.93,29.84,11,2,28,0.00
2013-7-22,83.3,77.5,70.6,76.7,74.1,69.7,97,89,78,29.88,29.79,14,4,14,0.08
2013-7-23,86.5,81.2,76.0,75.3,72.7,70.0,93,76,60,29.89,29.80,18,4,18,0.05
2013-7-24,70.6,70.4,70.2,69.4,69.2,69.0,96,96,96,29.87,29.86,4,0,9,0.00
2013-7-25,79.8,78.1,64.4,66.7,64.7,62.8,95,64,57,30.05,30.00,14,2,14,2.26
2013-7-26,74.5,69.9,65.1,67.3,65.8,63.9,96,87,75,30.05,30.03,4,0,5,0.00
2013-7-27,69.4,69.4,69.3,67.9,67.9,67.8,95,95,95,29.95,29.95,0,0,3,0.00
2013-7-28,61.6,61.4,61.1,58.6,58.5,58.3,91,90,90,30.01,30.01,2,0,2,0.00
2013-7-29,76.8,74.8,64.1,67.2,64.3,60.1,95,70,60,30.17,30.11,10,2,10,0.00
2013-7-30,74.5,69.8,66.4,71.4,68.1,64.1,97,94,77,30.14,30.02,10,1,10,0.80
2013-7-31,81.8,77.1,72.1,78.1,74.8,71.2,97,93,86,30.00,29.96,10,2,10,0.01
2013-8-1,83.3,80.2,70.3,73.3,70.9,69.1,96,74,66,30.04,29.96,13,2,13,0.00
2013-8-2,78.7,73.3,67.0,71.4,68.9,66.1,98,87,71,30.02,29.99,6,1,6,0.00
2013-8-3,71.3,71.3,71.3,69.8,69.8,69.8,95,95,95,29.95,29.94,6,3,6,0.32
2013-8-4,70.6,70.6,70.5,69.4,69.4,69.3,96,96,96,30.08,30.08,5,0,6,0.00
2013-8-5,74.1,69.8,68.3,68.6,67.0,63.9,95,91,74,30.05,29.91,6,1,6,0.20
2013-8-6,73.0,71.2,70.3,71.8,69.8,68.5,96,95,94,29.92,29.86,5,0,5,0.00
2013-8-7,84.5,81.0,0.0,78.1,74.2,0.0,85,77,73,29.88,29.87,5,1,5,0.00
2013-8-8,82.9,77.4,71.1,79.2,75.1,69.6,97,93,83,29.95,29.87,26,1,26,0.15
2013-8-9,87.5,80.2,73.2,80.3,76.0,72.3,98,87,76,30.02,29.92,14,1,14,0.07
2013-8-10,80.7,78.1,0.0,76.3,74.4,0.0,97,89,81,30.07,29.98,5,0,5,0.72
2013-8-11,77.4,74.4,72.8,75.2,73.8,72.1,98,98,93,30.09,30.03,2,0,2,0.72
2013-8-12,82.1,76.9,72.6,78.3,75.0,70.8,97,94,85,30.03,29.88,13,2,13,0.02
2013-8-13,82.8,78.2,72.7,75.3,72.0,66.9,97,82,63,29.98,29.91,13,1,13,0.03
2013-8-14,74.3,69.8,58.3,64.2,57.7,54.9,90,66,55,30.11,30.01,15,3,15,0.00
2013-8-15,76.6,70.1,57.6,63.5,60.4,56.2,95,72,57,30.10,30.01,13,1,13,0.00
2013-8-16,76.0,67.8,61.4,69.1,63.4,58.5,92,86,75,30.07,30.01,10,1,10,0.00
2013-8-17,66.6,66.6,66.6,65.7,65.7,65.7,97,97,97,30.08,30.08,0,0,6,0.00
2013-8-18,67.3,67.2,67.2,66.4,66.3,66.3,97,97,97,30.10,30.10,0,0,6,0.01
2013-8-19,82.1,76.7,65.5,73.6,70.6,64.6,98,82,68,30.11,30.01,9,1,9,0.05
2013-8-20,85.7,80.7,67.6,76.4,73.4,66.7,98,79,67,30.09,30.00,9,0,9,0.22
2013-8-21,87.1,81.8,71.5,77.7,74.6,70.6,97,80,64,30.12,30.03,11,1,11,0.21
2013-8-22,88.3,83.9,72.2,78.4,75.3,71.3,98,76,61,30.11,30.00,9,1,9,0.05
2013-8-23,90.7,83.7,73.2,79.2,75.7,71.2,97,78,59,30.06,29.97,13,1,13,0.09
2013-8-24,86.5,77.3,68.7,74.8,71.5,67.8,97,84,63,30.16,30.05,3,1,10,0.00
2013-8-25,86.1,77.1,68.1,75.8,71.9,65.8,96,85,67,30.25,30.16,5,2,13,0.00
2013-8-26,86.3,81.9,69.7,76.5,73.7,67.5,96,77,68,30.25,30.10,11,3,11,0.00
2013-8-27,87.2,82.4,69.0,77.1,73.7,66.2,91,76,66,30.12,30.01,14,2,14,0.00
2013-8-28,90.8,85.2,70.8,76.8,73.7,69.6,96,70,55,30.05,29.97,12,2,12,0.00
2013-8-29,92.8,86.5,72.6,79.6,76.2,70.5,93,72,58,30.01,29.95,9,1,9,0.00
2013-8-30,92.9,88.5,72.8,79.5,76.1,71.6,97,68,53,29.97,29.86,10,1,10,0.00
2013-8-31,81.3,78.0,75.8,76.2,74.6,73.1,92,89,84,29.88,29.86,6,1,6,0.00
2013-9-1,69.1,69.1,69.0,67.6,67.6,67.4,95,95,95,29.80,29.80,20,8,20,0.53
2013-9-2,89.1,79.8,68.7,78.7,74.0,66.9,97,83,63,29.90,29.80,14,1,20,1.56
2013-9-3,83.1,73.8,63.7,72.1,66.6,62.4,97,80,54,30.00,29.89,12,1,12,0.00
2013-9-4,80.7,76.5,61.2,68.6,65.1,60.3,97,69,55,30.13,29.97,11,1,11,0.00
2013-9-5,82.1,76.4,60.2,70.2,67.2,59.3,98,74,58,30.17,30.10,9,1,9,0.00
2013-9-6,85.0,80.3,66.4,73.2,69.7,65.5,97,71,58,30.15,30.04,11,2,11,0.00
2013-9-7,79.8,73.9,67.3,72.7,70.7,66.6,98,90,77,30.06,30.05,7,2,7,0.00
2013-9-8,71.3,71.2,71.1,70.4,70.3,70.2,97,97,97,29.94,29.94,0,0,7,0.00
2013-9-9,90.8,83.9,72.2,79.5,75.1,69.4,92,76,59,29.99,29.94,12,3,12,0.04
2013-9-10,88.5,83.7,74.7,79.3,75.7,73.2,95,78,62,30.12,30.01,14,3,14,0.00
2013-9-11,90.5,82.4,72.3,79.6,75.5,70.7,97,81,64,30.14,30.05,18,2,18,0.18
2013-9-12,86.3,81.4,73.3,78.7,75.1,71.5,96,82,72,30.09,29.90,15,2,15,0.01
2013-9-13,75.1,69.8,60.0,62.8,59.3,56.1,94,70,54,30.03,29.97,16,3,16,0.00
2013-9-14,69.8,55.4,50.4,56.7,50.8,48.3,93,85,63,30.10,29.98,10,1,11,0.00
2013-9-15,65.1,60.5,56.3,61.0,58.7,55.5,97,94,86,30.08,30.08,6,1,10,0.00
2013-9-16,74.5,71.7,63.2,68.4,65.9,61.8,96,82,77,30.17,30.12,11,2,11,0.00
2013-9-17,80.8,75.2,63.6,69.1,66.7,62.4,96,76,62,30.18,30.07,10,2,10,0.00
2013-9-18,82.7,77.3,69.4,74.5,71.7,67.9,95,83,73,30.11,30.01,13,4,13,0.00
2013-9-19,85.3,79.3,69.9,75.9,72.5,68.1,94,80,68,30.08,29.98,16,5,16,0.00
2013-9-20,81.4,75.9,69.8,74.0,71.7,66.7,96,87,75,29.94,29.82,14,3,14,0.13
2013-9-21,70.7,60.1,59.1,69.5,57.5,56.8,96,91,88,29.88,29.82,10,3,13,1.35
2013-9-22,73.5,71.9,54.3,58.5,56.2,53.5,97,58,53,29.95,29.91,14,2,14,0.06
2013-9-23,76.8,68.0,55.0,62.8,59.7,53.6,95,76,57,30.00,29.92,10,1,11,0.00
2013-9-24,80.1,68.1,57.4,70.9,63.5,56.3,97,86,65,29.95,29.80,13,2,13,0.02
2013-9-25,78.9,74.0,65.7,70.4,68.2,64.8,97,83,68,29.83,29.79,10,1,10,0.01
2013-9-26,70.2,66.4,63.0,69.0,65.6,62.1,98,97,96,29.97,29.94,6,1,6,0.00
2013-9-27,79.4,74.6,56.4,66.5,62.2,55.6,97,67,49,30.10,30.01,12,1,12,0.00
2013-9-28,70.7,67.8,65.0,63.3,62.5,61.8,90,83,76,30.13,30.10,14,4,14,0.00
2013-9-29,64.4,64.4,64.4,60.1,60.1,60.1,86,86,86,30.03,30.03,6,3,13,0.00
2013-9-30,70.1,67.9,63.6,66.2,64.8,62.7,97,90,84,30.00,29.93,16,4,16,0.05
2013-10-1,75.4,72.4,69.3,71.9,70.4,66.6,97,94,84,30.07,30.01,9,1,10,0.06
2013-10-2,80.2,72.6,68.1,74.4,69.7,66.6,97,91,76,30.09,30.01,12,1,12,0.06
2013-10-3,83.8,76.1,70.0,71.6,68.7,66.0,96,80,56,30.05,29.94,16,3,16,0.05
2013-10-4,84.9,78.9,67.1,75.4,72.0,65.9,96,80,66,30.06,29.96,16,4,16,0.01
2013-10-5,72.8,71.2,70.8,71.6,69.8,69.3,96,95,95,30.00,29.98,9,3,9,0.02
2013-10-6,55.0,55.0,54.9,53.6,53.6,53.5,95,95,95,29.88,29.87,5,2,8,0.00
2013-10-7,47.4,47.4,47.4,46.0,46.0,46.0,95,95,95,29.99,29.99,0,0,8,0.00
2013-10-8,48.2,48.2,48.2,46.8,46.8,46.8,95,95,95,30.17,30.17,0,0,8,0.02
2013-10-9,60.6,56.1,52.7,57.3,53.9,46.8,95,93,89,30.15,30.13,6,1,8,0.66
2013-10-10,77.0,66.2,59.0,67.2,62.4,58.2,98,88,66,30.15,30.01,1,0,9,0.02
2013-10-11,79.9,66.6,56.8,66.4,61.1,56.0,97,84,55,30.06,29.97,3,1,10,0.02
2013-10-12,75.1,65.8,56.9,68.8,62.7,56.1,97,90,74,30.11,29.99,4,1,10,0.02
2013-10-13,76.1,66.4,56.7,64.6,60.1,50.6,97,81,63,30.26,30.12,4,1,15,0.02
2013-10-14,75.5,67.9,51.9,64.7,59.4,47.2,88,75,65,30.25,30.09,10,1,10,0.00
2013-10-15,70.7,67.2,62.8,66.7,64.8,61.7,96,92,82,30.04,29.93,18,3,18,0.02
2013-10-16,66.5,60.6,56.9,65.6,58.6,54.5,97,93,81,30.01,29.91,12,2,12,0.01
2013-10-17,63.1,57.2,49.8,55.3,51.4,47.9,96,82,65,30.01,29.96,11,1,11,0.01
2013-10-18,68.9,61.7,43.4,55.2,51.3,42.6,97,70,52,30.08,29.94,12,2,12,0.01
2013-10-19,50.4,48.3,47.8,48.7,46.9,46.3,96,95,94,29.99,29.96,15,3,15,0.01
2013-10-20,39.9,39.8,39.8,38.8,38.8,38.8,96,96,96,30.09,30.08,3,2,7,0.00
2013-10-21,68.0,59.7,39.3,53.3,49.1,38.3,96,70,54,30.05,29.96,17,4,17,0.04
2013-10-22,62.2,55.0,41.6,51.5,41.3,37.1,95,62,45,30.07,29.86,14,2,14,0.00
2013-10-23,53.8,48.6,41.6,40.3,37.8,35.8,82,67,55,30.12,30.05,16,3,16,0.01
2013-10-24,51.1,47.0,43.3,40.9,37.1,30.7,87,69,53,30.29,30.16,13,2,13,0.00
2013-10-25,51.7,44.6,29.6,34.7,31.3,27.6,93,61,43,30.54,30.29,13,2,13,0.26
2013-10-26,41.8,39.6,38.0,35.9,34.4,33.1,83,81,79,30.26,30.25,5,2,5,0.05
2013-10-27,42.9,42.8,42.7,41.5,41.5,41.4,95,95,95,30.08,30.08,0,0,4,0.00
2013-10-28,71.1,63.6,56.3,59.6,56.8,55.0,97,80,59,30.20,30.13,7,0,7,0.09
2013-10-29,64.2,59.8,49.2,60.9,57.7,48.4,98,93,87,30.26,30.12,9,2,9,0.00
2013-10-30,76.2,71.7,64.9,67.3,64.9,61.8,90,80,72,30.15,30.02,19,7,19,0.00
2013-10-31,69.3,67.0,61.6,67.2,65.0,59.2,96,93,79,29.96,29.48,31,12,31,0.29
2013-11-1,70.0,63.3,51.1,55.5,50.9,46.4,96,66,45,29.78,29.71,19,5,25,0.03
2013-11-2,50.0,46.5,41.7,46.7,44.6,40.7,96,93,85,29.97,29.93,10,2,10,0.01
2013-11-3,42.7,42.4,42.2,41.9,41.6,41.4,97,97,97,30.32,30.32,0,0,10,0.00
2013-11-4,62.1,57.3,46.6,48.5,45.6,41.3,82,65,54,30.32,30.23,23,5,25,0.04
2013-11-5,68.5,62.3,54.2,51.1,47.6,43.0,74,59,51,30.33,30.17,15,4,15,0.01
2013-11-6,62.1,60.2,59.0,58.1,55.5,49.6,96,85,71,30.08,30.02,21,7,21,0.00
2013-11-7,53.7,51.5,48.3,37.4,34.4,32.2,61,52,45,30.38,30.31,11,3,11,0.01
2013-11-8,58.4,51.5,34.1,42.7,36.6,33.0,96,59,39,30.41,30.24,11,2,11,0.35
2013-11-9,51.6,47.4,44.1,40.3,38.6,36.7,76,71,64,30.26,30.24,13,4,13,0.05
2013-11-10,48.1,47.8,47.7,45.0,44.9,44.8,90,90,89,30.35,30.35,6,1,13,0.01
2013-11-11,68.8,57.9,35.4,45.1,39.3,33.8,94,53,29,30.31,30.15,24,2,24,0.03
2013-11-12,47.8,38.5,34.4,42.3,30.4,23.1,93,74,50,30.64,30.26,22,6,22,0.05
2013-11-13,46.1,39.5,25.2,29.2,25.4,22.2,93,59,39,30.72,30.50,9,2,13,0.00
2013-11-14,56.8,47.4,32.1,30.0,24.9,23.2,71,42,28,30.50,30.17,18,4,18,0.00
2013-11-15,51.1,45.6,41.2,47.1,36.3,24.0,90,70,50,30.18,30.04,11,2,11,0.02
2013-11-16,57.7,56.1,54.6,55.7,54.2,52.7,94,94,93,30.04,30.02,19,10,19,0.00
2013-11-17,64.6,64.6,64.6,63.4,63.4,63.4,96,96,96,29.78,29.78,11,5,16,0.12
2013-11-18,61.5,55.8,45.0,46.8,40.6,31.9,86,58,39,30.21,30.09,17,5,17,0.10
2013-11-19,49.6,45.0,38.3,33.9,31.7,30.3,76,60,48,30.32,30.23,11,2,11,0.01
2013-11-20,60.6,52.5,34.8,39.4,36.8,31.3,87,57,43,30.23,30.11,18,6,18,0.02
2013-11-21,64.7,55.8,48.1,56.8,49.6,39.4,96,80,66,30.23,30.14,9,4,17,0.01
2013-11-22,59.0,51.2,41.9,57.4,49.5,38.9,97,94,89,30.40,30.16,8,4,22,0.02
2013-11-23,44.1,37.2,24.7,38.8,28.2,16.6,90,71,43,30.63,30.38,10,6,25,0.03
2013-11-24,32.5,26.8,20.2,19.4,16.4,14.1,78,65,51,30.72,30.48,6,3,18,0.26
2013-11-25,41.3,36.0,29.2,31.2,27.6,17.5,93,73,49,30.46,30.26,16,3,16,0.01
2013-11-26,37.4,36.0,34.4,35.5,33.6,30.1,96,91,82,30.10,29.95,15,4,15,0.16
2013-11-27,34.6,23.4,21.9,30.3,14.5,13.5,84,68,64,30.28,30.03,19,9,19,0.06
2013-11-28,22.6,22.5,22.5,15.3,15.2,15.2,73,73,73,30.46,30.46,6,4,16,0.00
2013-11-29,25.4,25.1,24.9,23.0,22.9,22.6,91,91,91,30.58,30.58,0,0,16,0.00
2013-11-30,33.1,32.6,32.3,28.0,28.0,27.8,84,83,82,30.42,30.42,6,5,16,0.00
2013-12-1,47.4,47.4,47.4,35.0,35.0,35.0,62,62,62,30.16,30.16,3,1,16,0.00
2013-12-2,59.3,55.5,47.8,51.5,48.5,42.9,85,77,72,29.84,29.70,11,3,16,1.16
2013-12-3,63.6,57.4,51.9,55.2,53.0,47.5,97,86,69,29.78,29.68,17,3,17,0.00
2013-12-4,74.2,65.9,55.6,63.2,60.9,54.8,97,85,65,29.75,29.65,26,8,26,0.00
2013-12-5,49.1,39.9,34.4,47.5,36.8,32.6,95,89,79,30.12,29.94,18,6,18,0.13
2013-12-6,34.4,29.0,28.5,32.9,27.5,27.0,94,94,94,30.23,30.11,15,5,15,0.15
2013-12-7,18.8,18.7,18.7,15.6,15.5,15.5,87,87,87,30.59,30.59,7,4,9,0.00
2013-12-8,30.7,30.6,30.6,29.3,29.3,29.3,95,95,95,30.23,30.23,2,0,9,0.00
2013-12-9,28.1,28.1,28.0,26.9,26.9,26.8,95,95,95,30.24,30.24,0,0,9,0.00
2013-12-10,36.7,31.0,23.1,29.2,24.9,20.1,89,78,66,30.41,30.35,15,3,15,0.18
2013-12-11,41.1,34.9,24.4,33.8,29.4,22.8,94,80,66,30.51,30.35,21,4,21,0.21
2013-12-12,36.2,29.5,14.6,21.9,18.1,12.5,91,63,47,30.64,30.46,7,1,13,0.07
2013-12-13,42.0,35.4,25.1,30.1,24.2,17.4,75,64,53,30.46,30.14,13,3,13,0.04
2013-12-14,40.6,40.6,40.5,39.5,39.5,39.5,96,96,96,29.82,29.82,5,4,5,0.37
2013-12-15,30.3,30.3,30.3,27.2,27.2,27.2,88,88,88,30.21,30.20,6,4,6,0.01
2013-12-16,55.0,46.8,33.5,41.8,37.7,30.9,92,71,56,30.15,30.06,18,6,20,1.98
2013-12-17,49.2,43.0,34.1,38.7,34.6,29.0,93,73,55,30.24,30.14,14,3,14,0.00
2013-12-18,52.2,44.5,23.4,32.5,28.2,21.6,94,55,38,30.36,30.15,16,4,16,0.00
2013-12-19,60.2,54.7,42.3,50.4,46.2,35.9,81,73,63,30.15,29.97,27,9,27,0.00
2013-12-20,63.6,61.5,58.4,60.6,58.6,54.5,93,90,87,29.95,29.86,21,8,21,0.03
2013-12-21,67.8,67.2,66.5,64.1,63.3,62.5,89,88,87,29.68,29.66,27,13,27,3.31
2013-12-22,48.0,47.9,47.9,47.2,47.1,47.1,97,97,97,29.83,29.83,7,5,24,0.25
2013-12-23,32.6,32.6,32.6,28.9,28.9,28.9,86,86,86,30.39,30.39,7,4,24,0.05
2013-12-24,17.9,17.9,17.9,13.9,13.9,13.9,84,84,84,30.60,30.59,6,5,24,0.00
2013-12-25,20.1,20.1,20.1,16.3,16.3,16.3,85,85,85,30.44,30.44,0,0,24,0.00
2013-12-26,23.8,23.8,23.8,22.3,22.3,22.3,94,94,94,30.41,30.41,0,0,24,0.00
2013-12-27,24.0,23.9,23.9,22.5,22.4,22.4,94,94,94,30.44,30.44,0,0,24,0.00
2013-12-28,28.0,28.0,28.0,25.5,25.5,25.5,90,90,90,30.30,30.30,0,0,24,0.00
2013-12-29,41.1,41.1,41.1,40.0,40.0,40.0,96,96,96,29.95,29.95,6,4,24,0.30
2013-12-30,25.1,25.1,25.1,21.5,21.5,21.5,86,86,86,30.29,30.28,5,3,24,0.00
2013-12-31,21.4,21.4,21.4,18.7,18.7,18.6,89,89,89,30.42,30.42,0,0,24,0.00
2014-1-1,27.6,27.6,27.6,25.8,25.8,25.8,93,93,93,30.26,30.26,5,1,24,0.00
2014-1-2,28.8,28.7,28.5,27.5,27.4,27.2,95,95,95,30.00,29.99,17,12,24,0.08